Jacksonville, IL

9:22 AM CDT on October 22, 2017 (GMT -0500)
Jacksonville Municipal

Weather History for KIJX - May, 2014

Change the Weather History Date:

Saturday, May 17, 2014

  Actual Average (KSPI) Record (KSPI)
Temperature  
Mean Temperature 50 °F -  
Max Temperature 61 °F 77 °F 95 °F (1962)
Min Temperature 39 °F 54 °F 35 °F (1973)
Degree Days  
Heating Degree Days 15    
Moisture  
Dew Point 37 °F    
Average Humidity 63    
Maximum Humidity 96    
Minimum Humidity 34    
Precipitation  
Precipitation 0.00 in - - ()
Sea Level Pressure  
Sea Level Pressure 30.18 in    
Wind  
Wind Speed 4 mph (SW)    
Max Wind Speed 10 mph    
Max Gust Speed -    
Visibility 10 miles    
Events      
Averages and records for this station are not official NWS values.
T = Trace of Precipitation, MM = Missing Value Source: NWS Daily Summary

Daily Weather History Graph

Daily Weather History Graph

Search for Another Location

Airport or City:

Trip Planner

Search our weather history database for the weather conditions in past years. The results will help you decide how hot, cold, wet, or windy it might be!

Date:

Astronomy

May. 17, 2014 Rise Set
Actual Time 5:44 AM CDT 8:10 PM CDT
Civil Twilight 5:13 AM CDT 8:41 PM CDT
Nautical Twilight 4:35 AM CDT 9:19 PM CDT
Astronomical Twilight 3:53 AM CDT 10:02 PM CDT
Moon 11:11 PM CDT (5/17) 8:27 AM CDT (5/17)
Length of Visible Light 15h 27m
Length of Day
14h 26m
Waning Gibbous, 89% of the Moon is Illuminated
May 17
Waning Gibbous
May 21
Last Quarter
May 28
New
Jun 5
First Quarter
Jun 12
Full

Hourly Weather History & Observations

Time (CDT) Temp. Windchill Dew Point Humidity Pressure Visibility Wind Dir Wind Speed Gust Speed Precip Events Conditions
12:15 AM 41.0 °F - 38.7 °F 91% 30.15 in 10.0 mi Calm Calm - N/A   Scattered Clouds
12:35 AM 41.4 °F - 39.4 °F 93% 30.15 in 10.0 mi Calm Calm - N/A   Clear
12:55 AM 41.4 °F 39.4 °F 39.7 °F 94% 30.14 in 10.0 mi SSW 3.5 mph - N/A   Clear
1:15 AM 40.1 °F - 38.3 °F 93% 30.14 in 7.0 mi Calm Calm - N/A   Scattered Clouds
1:35 AM 40.3 °F 38.2 °F 38.8 °F 95% 30.14 in 7.0 mi SSW 3.5 mph - N/A   Mostly Cloudy
1:55 AM 41.0 °F 39.0 °F 39.6 °F 95% 30.14 in 10.0 mi SW 3.5 mph - N/A   Scattered Clouds
2:15 AM 40.5 °F 36.5 °F 38.8 °F 94% 30.14 in 10.0 mi SW 5.8 mph - N/A   Scattered Clouds
2:35 AM 40.3 °F 36.3 °F 38.1 °F 92% 30.14 in 10.0 mi SW 5.8 mph - N/A   Clear
2:55 AM 40.1 °F 36.9 °F 37.9 °F 92% 30.14 in 10.0 mi SW 4.6 mph - N/A   Clear
3:15 AM 40.3 °F 37.1 °F 38.5 °F 93% 30.14 in 10.0 mi SW 4.6 mph - N/A   Clear
3:35 AM 40.1 °F 36.9 °F 38.3 °F 93% 30.14 in 10.0 mi SSW 4.6 mph - N/A   Clear
3:55 AM 40.1 °F 36.9 °F 38.3 °F 93% 30.15 in 10.0 mi SW 4.6 mph - N/A   Clear
4:15 AM 40.3 °F 36.3 °F 38.7 °F 94% 30.15 in 10.0 mi SW 5.8 mph - N/A   Clear
4:35 AM 40.5 °F 36.5 °F 39.0 °F 95% 30.15 in 10.0 mi SW 5.8 mph - N/A   Clear
4:55 AM 40.3 °F 36.3 °F 38.7 °F 94% 30.15 in 10.0 mi SSW 5.8 mph - N/A   Clear
5:15 AM 40.3 °F 37.1 °F 39.0 °F 95% 30.14 in 10.0 mi SW 4.6 mph - N/A   Clear
5:35 AM 39.9 °F 36.7 °F 38.3 °F 94% 30.15 in 10.0 mi SW 4.6 mph - N/A   Clear
5:55 AM 39.2 °F 35.9 °F 37.6 °F 94% 30.15 in 7.0 mi SSW 4.6 mph - N/A   Clear
6:15 AM 39.7 °F 36.5 °F 38.5 °F 95% 30.16 in 7.0 mi SW 4.6 mph - N/A   Clear
6:35 AM 40.3 °F 37.1 °F 39.2 °F 96% 30.16 in 7.0 mi SSW 4.6 mph - N/A   Clear
6:55 AM 42.1 °F 38.4 °F 40.6 °F 95% 30.16 in 10.0 mi SW 5.8 mph - N/A   Clear
7:15 AM 43.5 °F 40.9 °F 40.3 °F 88% 30.17 in 10.0 mi SW 4.6 mph - N/A   Scattered Clouds
7:35 AM 45.3 °F 41.6 °F 40.8 °F 84% 30.17 in 10.0 mi SW 6.9 mph - N/A   Scattered Clouds
7:55 AM 45.7 °F 43.4 °F 41.4 °F 85% 30.18 in 10.0 mi SW 4.6 mph - N/A   Clear
8:15 AM 48.9 °F - 42.1 °F 77% 30.18 in 10.0 mi WSW 4.6 mph - N/A   Clear
8:35 AM 50.2 °F - 41.5 °F 72% 30.18 in 10.0 mi SW 6.9 mph - N/A   Clear
8:55 AM 51.6 °F - 41.2 °F 68% 30.19 in 10.0 mi SW 8.1 mph - N/A   Clear
9:15 AM 52.7 °F - 41.2 °F 65% 30.19 in 10.0 mi SW 8.1 mph - N/A   Clear
9:35 AM 53.6 °F - 41.2 °F 63% 30.19 in 10.0 mi SW 10.4 mph - N/A   Clear
9:55 AM 54.5 °F - 41.7 °F 62% 30.19 in 10.0 mi SSW 4.6 mph - N/A   Clear
10:15 AM 55.8 °F - 39.2 °F 54% 30.19 in 10.0 mi SW 9.2 mph - N/A   Scattered Clouds
10:35 AM 56.1 °F - 32.9 °F 41% 30.19 in 10.0 mi West 4.6 mph - N/A   Scattered Clouds
10:55 AM 54.9 °F - 32.4 °F 42% 30.20 in 10.0 mi WNW 6.9 mph - N/A   Mostly Cloudy
11:15 AM 54.5 °F - 32.7 °F 44% 30.20 in 10.0 mi WNW 5.8 mph - N/A   Overcast
11:35 AM 55.9 °F - 34.3 °F 44% 30.20 in 10.0 mi WNW 3.5 mph - N/A   Mostly Cloudy
11:55 AM 55.9 °F - 31.8 °F 40% 30.20 in 10.0 mi North 6.9 mph - N/A   Mostly Cloudy
12:15 PM 56.3 °F - 33.3 °F 42% 30.20 in 10.0 mi SW 4.6 mph - N/A   Mostly Cloudy
12:35 PM 57.0 °F - 32.5 °F 40% 30.20 in 10.0 mi WNW 3.5 mph - N/A   Mostly Cloudy
12:55 PM 56.3 °F - 30.4 °F 37% 30.20 in 10.0 mi Calm Calm - N/A   Mostly Cloudy
1:15 PM 57.9 °F - 33.1 °F 39% 30.20 in 10.0 mi WSW 5.8 mph - N/A   Scattered Clouds
1:35 PM 57.4 °F - 32.0 °F 38% 30.20 in 10.0 mi WNW 5.8 mph - N/A   Scattered Clouds
1:55 PM 58.3 °F - 32.9 °F 38% 30.20 in 10.0 mi WNW 4.6 mph - N/A   Scattered Clouds
2:15 PM 59.7 °F - 34.5 °F 39% 30.19 in 10.0 mi West 8.1 mph - N/A   Scattered Clouds
2:35 PM 58.1 °F - 32.5 °F 38% 30.19 in 10.0 mi WNW 4.6 mph - N/A   Mostly Cloudy
2:55 PM 58.1 °F - 31.6 °F 37% 30.19 in 10.0 mi NW 4.6 mph - N/A   Mostly Cloudy
3:15 PM 59.9 °F - 32.7 °F 36% 30.18 in 10.0 mi Calm Calm - N/A   Mostly Cloudy
3:35 PM 58.6 °F - 32.0 °F 37% 30.18 in 10.0 mi Calm Calm - N/A   Scattered Clouds
3:55 PM 59.4 °F - 31.3 °F 35% 30.17 in 10.0 mi Calm Calm - N/A   Mostly Cloudy
4:15 PM 61.2 °F - 32.9 °F 35% 30.16 in 10.0 mi West 8.1 mph - N/A   Mostly Cloudy
4:35 PM 61.2 °F - 33.3 °F 35% 30.17 in 10.0 mi West 6.9 mph - N/A   Scattered Clouds
4:55 PM 59.4 °F - 30.7 °F 34% 30.17 in 10.0 mi Calm Calm - N/A   Scattered Clouds
5:15 PM 59.9 °F - 31.6 °F 34% 30.17 in 10.0 mi Calm Calm - N/A   Mostly Cloudy
5:35 PM 59.4 °F - 32.4 °F 36% 30.17 in 10.0 mi Calm Calm - N/A   Mostly Cloudy
5:55 PM 59.5 °F - 33.6 °F 38% 30.17 in 10.0 mi North 3.5 mph - N/A   Mostly Cloudy
6:15 PM 60.8 °F - 32.7 °F 35% 30.17 in 10.0 mi Calm Calm - N/A   Scattered Clouds
6:35 PM 60.1 °F - 32.9 °F 36% 30.17 in 10.0 mi SSE 5.8 mph - N/A   Clear
6:55 PM 60.1 °F - 32.5 °F 35% 30.17 in 10.0 mi Calm Calm - N/A   Scattered Clouds
7:15 PM 59.9 °F - 34.9 °F 39% 30.18 in 10.0 mi Calm Calm - N/A   Scattered Clouds
7:35 PM 59.2 °F - 38.8 °F 47% 30.18 in 10.0 mi Calm Calm - N/A   Clear
7:55 PM 58.1 °F - 36.9 °F 45% 30.18 in 10.0 mi Calm Calm - N/A   Clear
8:15 PM 56.5 °F - 35.8 °F 46% 30.19 in 10.0 mi Calm Calm - N/A   Scattered Clouds
8:35 PM 54.9 °F - 41.7 °F 61% 30.19 in 10.0 mi Calm Calm - N/A   Mostly Cloudy
8:55 PM 52.7 °F - 44.1 °F 72% 30.20 in 10.0 mi Calm Calm - N/A   Scattered Clouds
9:15 PM 52.9 °F - 37.9 °F 57% 30.20 in 10.0 mi SSE 4.6 mph - N/A   Clear
9:35 PM 53.4 °F - 37.0 °F 54% 30.21 in 10.0 mi SSE 3.5 mph - N/A   Clear
9:55 PM 50.5 °F - 39.4 °F 66% 30.21 in 10.0 mi SSE 3.5 mph - N/A   Clear
10:15 PM 52.2 °F - 37.4 °F 57% 30.22 in 10.0 mi SSE 4.6 mph - N/A   Clear
10:35 PM 51.4 °F - 37.9 °F 60% 30.22 in 10.0 mi SSE 3.5 mph - N/A   Clear
10:55 PM 50.0 °F - 39.2 °F 66% 30.23 in 10.0 mi SSE 4.6 mph - N/A   Clear
11:15 PM 50.4 °F - 38.5 °F 64% 30.23 in 10.0 mi SSE 5.8 mph - N/A   Clear
11:35 PM 49.1 °F - 38.1 °F 66% 30.23 in 10.0 mi SE 4.6 mph - N/A   Clear
11:55 PM 48.7 °F - 38.5 °F 68% 30.23 in 10.0 mi SE 4.6 mph - N/A   Clear